Total_Precipitation_Accumulation
2.04 2.13 2.11 2.04 1.93 2.26 2.68 2.89 2.60 2.89 2.91 2.51 2.19 2.08 2.04 2.02 2.21 2.42 2.29 2.45 2.35 2.30 2.51 2.55 2.35 2.12 1.96 1.65 1.41 1.21 1.05 1.01 0.94 0.77 0.64 0.62 0.55 0.49 0.47 0.48 0.46 0.43 0.40
2.52 2.57 2.44 2.36 2.14 2.15 2.45 2.67 2.66 2.89 2.77 2.63 2.05 1.94 1.90 2.05 2.23 2.28 2.30 2.75 2.72 2.47 2.46 2.59 2.60 2.44 2.28 2.14 1.82 1.55 1.34 1.22 1.12 0.88 0.69 0.64 0.60 0.54 0.51 0.52 0.56 0.52 0.40
3.00 2.87 2.67 2.34 2.23 2.29 2.43 2.41 2.43 2.52 2.39 2.30 2.07 2.14 2.10 2.01 1.91 1.95 2.12 2.33 2.27 2.13 2.13 2.22 2.45 2.60 2.73 2.71 2.49 2.31 1.87 1.48 1.25 0.99 0.78 0.63 0.56 0.51 0.49 0.51 0.57 0.55 0.43
2.92 2.84 2.53 2.17 2.21 2.34 2.34 2.32 2.18 2.26 2.29 2.35 2.34 2.18 2.27 2.14 1.74 1.71 1.77 1.75 1.85 1.69 1.88 2.00 2.12 2.32 2.77 3.17 3.29 3.13 2.65 1.97 1.48 1.17 0.95 0.76 0.62 0.52 0.47 0.48 0.54 0.53 0.41
2.73 2.79 2.46 2.33 2.26 2.29 2.19 2.02 2.23 2.36 2.37 2.41 2.24 2.12 1.92 1.72 1.48 1.32 1.28 1.18 1.35 1.54 1.73 1.79 1.89 1.98 2.45 3.20 3.84 4.00 3.61 2.79 2.07 1.59 1.34 1.12 0.92 0.72 0.57 0.53 0.51 0.46 0.39
2.39 2.51 2.29 2.23 2.33 2.36 2.17 2.18 2.37 2.36 2.14 2.23 2.05 1.88 1.67 1.38 1.25 1.13 0.97 0.97 0.94 0.93 1.18 1.54 1.83 1.57 1.95 2.61 3.25 3.74 4.00 3.64 2.86 2.29 1.87 1.53 1.31 1.07 0.78 0.67 0.59 0.52 0.45
2.05 2.29 2.12 2.33 2.26 2.11 1.94 1.92 2.01 1.99 1.76 2.03 2.22 1.79 1.36 1.13 1.01 0.87 0.87 0.93 0.87 0.94 1.18 1.52 1.73 1.85 1.71 1.73 2.06 2.57 3.41 3.81 3.53 2.98 2.50 2.08 1.78 1.49 1.10 0.89 0.76 0.63 0.57
2.15 2.00 2.10 1.98 1.94 1.98 1.77 1.66 1.81 1.79 1.56 1.85 1.96 1.92 1.42 1.20 1.00 0.70 0.76 0.79 0.86 1.06 1.10 1.23 1.55 1.74 1.67 1.95 1.62 1.60 2.35 3.08 3.56 3.53 3.09 2.54 2.13 1.78 1.43 1.20 0.99 0.78 0.66
2.42 2.26 2.09 1.91 1.84 1.71 1.69 1.64 1.69 1.72 1.63 1.59 1.65 1.79 1.45 1.15 0.98 0.69 0.61 0.68 0.92 1.17 1.17 1.28 1.33 1.49 1.53 1.78 1.82 1.68 1.64 2.02 2.79 3.62 3.70 3.09 2.38 1.81 1.47 1.42 1.35 1.10 0.89
2.66 2.39 2.18 1.95 1.73 1.58 1.68 1.41 1.49 1.69 1.75 1.50 1.48 1.44 1.36 1.44 1.41 1.07 0.75 0.66 0.89 1.05 1.12 1.07 1.17 1.40 1.56 1.76 1.91 1.93 1.68 1.61 2.05 2.92 3.48 3.41 2.89 2.24 1.82 1.75 1.92 1.81 1.37
2.45 2.16 2.04 1.96 1.75 1.56 1.51 1.46 1.60 1.58 1.56 1.47 1.49 1.48 1.57 1.66 1.50 1.37 1.09 0.96 0.98 0.91 0.93 0.99 1.16 1.33 1.51 1.76 2.05 2.09 2.21 1.90 1.74 1.95 2.40 2.73 2.85 2.60 2.24 2.18 2.58 2.80 2.44
2.07 1.97 1.88 1.85 1.71 1.56 1.52 1.47 1.54 1.59 1.62 1.65 1.62 1.58 1.64 1.60 1.60 1.74 1.52 1.31 1.22 1.04 1.02 1.12 1.28 1.43 1.53 1.67 1.71 1.87 1.97 1.98 1.87 1.78 1.83 1.99 2.25 2.43 2.48 2.55 2.84 3.17 3.28
1.63 1.66 1.74 1.80 1.66 1.57 1.63 1.73 1.68 1.59 1.63 1.69 1.64 1.69 1.73 1.66 1.74 1.88 1.84 1.60 1.46 1.35 1.39 1.37 1.35 1.53 1.52 1.71 1.87 1.76 1.52 1.56 1.57 1.55 1.51 1.47 1.56 1.81 2.00 2.12 2.43 2.79 3.10
1.51 1.57 1.73 1.78 1.68 1.60 1.55 1.77 1.74 1.72 1.75 1.72 1.63 1.85 1.88 1.69 1.86 2.07 2.17 2.15 1.92 1.82 1.85 1.81 1.56 1.50 1.56 1.69 1.83 1.71 1.54 1.47 1.24 1.14 1.10 1.13 1.16 1.24 1.37 1.53 1.72 1.91 2.18
1.62 1.70 1.74 1.85 1.90 1.92 1.90 1.97 1.89 1.90 2.03 2.01 1.95 2.03 2.03 1.92 1.96 2.07 2.25 2.38 2.38 2.25 2.13 2.05 1.79 1.62 1.56 1.55 1.65 1.61 1.72 1.60 1.22 1.02 0.93 0.90 0.90 0.93 1.00 1.11 1.25 1.41 1.54
1.73 1.77 1.76 1.79 1.89 1.95 1.96 2.04 2.01 2.08 2.26 2.27 2.32 2.39 2.28 2.07 2.11 2.14 2.22 2.40 2.59 2.61 2.39 2.07 1.85 1.68 1.62 1.47 1.53 1.41 1.50 1.43 1.11 0.97 0.88 0.82 0.77 0.78 0.83 0.88 0.96 1.10 1.21
1.70 1.74 1.74 1.70 1.67 1.75 1.92 2.07 2.06 2.20 2.31 2.36 2.37 2.30 2.20 2.21 2.26 2.16 2.23 2.33 2.50 2.67 2.46 2.16 2.01 1.93 1.88 1.79 1.67 1.42 1.25 1.17 1.05 1.06 0.93 0.82 0.80 0.81 0.84 0.88 0.93 1.00 1.08
1.77 1.74 1.71 1.66 1.60 1.66 1.89 2.04 2.16 2.39 2.49 2.41 2.32 2.27 2.16 2.26 2.34 2.26 2.26 2.21 2.26 2.51 2.46 2.30 2.22 2.23 2.13 1.95 1.86 1.66 1.34 1.20 1.18 1.21 1.11 0.96 0.87 0.87 0.87 0.88 0.93 0.97 1.04
1.69 1.63 1.64 1.69 1.79 1.90 2.06 2.19 2.30 2.44 2.41 2.30 2.31 2.23 2.10 2.12 2.10 2.16 2.21 2.17 2.12 2.17 2.31 2.26 2.19 2.28 2.22 2.01 1.90 1.72 1.57 1.63 1.47 1.29 1.18 1.07 0.99 0.94 0.92 0.87 0.89 0.96 1.06
1.45 1.50 1.68 1.90 2.06 2.17 2.26 2.32 2.31 2.26 2.24 2.14 2.06 1.98 1.96 2.02 2.05 2.05 1.99 1.97 1.98 2.06 2.13 2.14 2.15 2.26 2.28 2.21 2.06 1.92 1.88 1.86 1.71 1.35 1.25 1.12 1.02 0.93 0.87 0.81 0.83 0.97 1.11
1.46 1.66 1.83 1.93 1.95 1.99 2.06 2.18 2.18 2.12 2.07 1.97 1.85 1.68 1.68 1.92 1.99 1.94 1.79 1.86 1.93 1.97 1.99 2.07 2.13 2.24 2.29 2.39 2.19 1.95 1.91 1.98 1.89 1.69 1.54 1.32 1.18 1.08 1.04 1.00 0.94 0.95 1.01
1.62 1.79 1.83 1.82 1.76 1.52 1.59 1.70 1.75 1.77 1.77 1.72 1.60 1.53 1.56 1.65 1.64 1.60 1.56 1.56 1.61 1.69 1.86 2.09 2.20 2.21 2.18 2.26 2.33 2.23 2.16 2.12 2.08 2.01 2.06 1.95 1.65 1.55 1.45 1.34 1.22 0.99 0.88
1.79 1.90 1.88 1.83 1.74 1.66 1.53 1.38 1.36 1.40 1.52 1.53 1.55 1.60 1.41 1.30 1.42 1.42 1.46 1.40 1.34 1.39 1.49 1.72 1.92 1.97 2.06 2.07 2.32 2.35 2.38 2.46 2.44 2.40 2.42 2.43 2.10 1.83 1.62 1.53 1.43 1.13 0.96
2.03 2.04 1.98 1.89 1.87 1.82 1.71 1.47 1.37 1.32 1.47 1.52 1.50 1.53 1.52 1.45 1.44 1.52 1.54 1.45 1.32 1.28 1.26 1.23 1.42 1.68 1.90 2.12 2.19 2.25 2.35 2.42 2.42 2.29 2.27 2.37 2.23 2.09 1.79 1.50 1.37 1.19 1.01
2.12 2.07 2.10 2.05 2.01 2.04 1.86 1.51 1.34 1.34 1.52 1.55 1.54 1.51 1.49 1.45 1.49 1.36 1.32 1.32 1.31 1.27 1.11 1.12 1.20 1.39 1.56 1.63 1.84 2.06 2.25 2.22 2.15 1.96 1.81 1.92 2.00 2.02 1.98 1.76 1.40 1.28 1.09
2.15 2.11 2.11 2.13 2.08 2.08 1.98 1.48 1.25 1.27 1.47 1.52 1.59 1.57 1.47 1.34 1.31 1.18 1.15 1.29 1.27 1.25 1.25 1.18 1.09 1.11 1.18 1.30 1.37 1.43 1.70 1.90 1.82 1.76 1.54 1.46 1.45 1.56 1.71 1.58 1.35 1.26 1.22